Flag for Micronesia Weather past 2 weeks in Weno, Truk, Micronesia

Now
77 °F

Mostly cloudy.


Feels Like: 77 °F
Forecast: 78 / 87 °F
Wind: No wind

Location: Truk Intl / Moen Island

Current Time: Aug 30, 2014 at 5:09:57 AM

Latest Report: Aug 30, 2014 at 3:50 AM


Visibility: 15 mi

Pressure: 29.72 "Hg

Humidity: 96%

Dew point: 76 °F

Location of WenoLocation

Historic Weather in Weno — Graph

°F

Weno temperature yesterday

Maximum temperature yesterday: 88 °F (at 12:53 PM)
Minimum temperature yesterday: 76 °F (at 4:50 AM)
Average temperature yesterday: 80 °F

Past Weeks' High & Low Weather Summary

 TemperatureHumidityPressure
High89 °F (Aug 22, 12:52 PM)100% (Aug 15, 2:53 AM)29.92 "Hg (Aug 15, 2:53 AM)
Low74 °F (Aug 19, 5:53 AM)14% (Aug 16, 7:56 AM)29.73 "Hg (Aug 29, 1:53 PM)
Average81 °F91%29.82 "Hg
* Reported Aug 15 2:53 AM — Aug 30 2:54 AM, Weno, Weather by CustomWeather, © 2014

Note: Actual official high and low records may vary slightly from our data, if they occured in-between our weather recording intervals... More about our weather records

Advertising

Weno weather history for previous 24 hours

 ConditionsComfort  
Time TempWeatherWind HumidityBarometerVisibility
2:54 AM
Aug 30
77 °FMostly cloudy.No wind95%29.74 "Hg15 mi
1:52 AM77 °FMostly cloudy.No wind96%29.74 "Hg15 mi
12:52 AM77 °FMostly cloudy.No wind95%29.75 "Hg15 mi
11:51 PM
Aug 29
77 °FMostly cloudy.5 mph96%29.75 "Hg15 mi
10:50 PM76 °FMostly cloudy.3 mph96%29.78 "Hg15 mi
9:50 PM76 °FMostly cloudy.3 mph98%29.78 "Hg15 mi
8:50 PM78 °FMostly cloudy.3 mph98%29.80 "Hg15 mi
7:54 PM78 °FMostly cloudy.No wind97%29.79 "Hg15 mi
6:54 PM79 °FMostly cloudy.9 mph93%29.78 "Hg15 mi
5:53 PM78 °FMostly cloudy.10 mph94%29.76 "Hg15 mi
4:54 PM79 °FMostly cloudy.6 mph97%29.74 "Hg15 mi
3:53 PM80 °FMostly cloudy.No wind96%29.73 "Hg15 mi
2:53 PM81 °FSprinkles. Cloudy.7 mph96%29.73 "Hg15 mi
1:53 PM82 °FSprinkles. Cloudy.5 mph91%29.73 "Hg15 mi
12:53 PM88 °FWarm.N/A80%29.74 "HgN/A
11:50 AM86 °FMostly cloudy.12 mph79%29.76 "Hg15 mi
10:50 AM87 °FMostly cloudy.6 mph80%29.78 "Hg15 mi
9:50 AM87 °FMostly cloudy.6 mph81%29.80 "Hg15 mi
8:50 AM85 °FPartly sunny.6 mph88%29.80 "Hg15 mi
7:55 AM83 °FPartly sunny.6 mph96%29.80 "Hg15 mi
6:50 AM80 °FPartly sunny.3 mph100%29.78 "Hg15 mi
5:50 AM76 °FMore clouds than sun.3 mph100%29.76 "Hg15 mi
Weather by CustomWeather, © 2014

See weather overviewHow to use our weather pages